Main page


Airports :

Kashmar, Iran

latitude: 35-16-14N, longitude: 58-28-24E, elevation: 1110 m

Current weather observation

The report was made 38 minutes ago, at 04:00 UTC
Wind 10 kt from the East
Temperature 19°C
Humidity 19%
Pressure 1011 hPa
Visibility 10 km or more
Few clouds at a height of 4000 ft
Broken clouds at a height of 10000 ft

METAR: OIMQ 170400Z 09010KT 9999 FEW040 BKN100 19/M05 Q1011

Time: 08:08 (04:38 UTC)

TAF: missing

Weather observations and forecasts of more than 4000 airports (METAR and TAF reports).

The available stations are represented by yellow and red dots on the map.

Hover mouse over dot to see the name of the station.

Then click to see weather observations and forecasts.

To change the map : click on the green buttons with a black cross to zoom in, on the green button with a dash to zoom out, or on the green arrows for adjacent maps.